contact:dominique.lefevre@mio.osupytheas.fr, maurice.libes@osupytheas.fr, didier.mallarino@osupytheas.fr
Project:EMSO http://www.emso-fr.org/EMSO-France
Depth: 2436.0 m
Title:EMSO Ligure Ouest : Data MII capteur AQUADOPP
Date,Latitude,Longitude,X_East,Y_North,Z_Up,Amplitude_X,Amplitude_Y,Amplitude_Z,Batterie,SoundSpeed,Heading,Pitch,Roll,Pressure,TIS,Speed,Direction
, degrees North, degrees East, m.s-1, m.s-1,m.s-1, 1, 1, 1, Volt, m.s-1, degree, degree, degree, dbar, degree_C, m.s-1, degree
2022-09-30T00:04:03,42.805,6.029,-0.018,-0.002,-0.027,101.0,100.0,100.0,13.4,1505.2,320.4,-0.8,1.8,2471.082,13.29,0.018,263.7
2022-09-30T00:07:03,42.805,6.029,-0.003,-0.012,-0.007,100.0,101.0,100.0,13.4,1505.2,319.7,-0.8,1.8,2471.039,13.29,0.012,194.0
2022-09-30T00:10:03,42.805,6.029,-0.018,-0.005,-0.019,100.0,100.0,99.0,13.4,1505.2,332.5,-0.8,1.9,2471.018,13.29,0.018,254.5
2022-09-30T00:13:03,42.805,6.029,-0.003,-0.001,0.003,100.0,100.0,100.0,13.3,1505.2,328.9,-0.8,1.8,2471.039,13.29,0.003,251.6
2022-09-30T00:16:03,42.805,6.029,-0.012,0.02,0.011,100.0,101.0,99.0,13.4,1505.2,331.6,-0.7,1.8,2470.992,13.29,0.023,329.0
2022-09-30T00:19:03,42.805,6.029,0.021,-0.016,-0.004,101.0,100.0,98.0,13.4,1505.2,321.2,-0.7,1.8,2471.039,13.29,0.026,127.3
2022-09-30T00:22:03,42.805,6.029,-0.019,0.02,0.01,99.0,98.0,100.0,13.4,1505.2,321.2,-0.8,1.9,2471.031,13.29,0.027,316.5
2022-09-30T00:25:03,42.805,6.029,-0.014,0.01,0.022,102.0,100.0,99.0,13.4,1505.2,322.7,-0.8,1.8,2470.965,13.29,0.017,305.5
2022-09-30T00:28:03,42.805,6.029,-0.014,0.0,0.005,100.0,101.0,99.0,13.3,1505.2,331.2,-0.8,1.8,2470.965,13.29,0.014,270.0
2022-09-30T00:31:03,42.805,6.029,-0.011,0.013,0.011,100.0,100.0,99.0,13.4,1505.2,327.6,-0.7,1.8,2471.013,13.29,0.017,319.8
2022-09-30T00:34:03,42.805,6.029,-0.008,0.0,-0.008,100.0,101.0,99.0,13.4,1505.2,322.2,-0.7,1.8,2470.994,13.29,0.008,270.0
2022-09-30T00:37:03,42.805,6.029,-0.023,-0.005,-0.056,101.0,98.0,99.0,13.4,1505.2,329.1,-0.8,1.8,2470.988,13.29,0.023,257.7
2022-09-30T00:40:03,42.805,6.029,-0.007,0.004,-0.015,100.0,99.0,99.0,13.4,1505.2,330.8,-0.8,1.8,2470.959,13.29,0.008,299.7
2022-09-30T00:43:03,42.805,6.029,-0.026,0.002,-0.022,101.0,100.0,99.0,13.3,1505.2,325.2,-0.7,1.8,2471.008,13.29,0.026,274.4
2022-09-30T00:46:03,42.805,6.029,-0.032,0.001,-0.02,102.0,101.0,98.0,13.4,1505.2,320.2,-0.7,1.8,2471.003,13.29,0.032,271.8
2022-09-30T00:49:03,42.805,6.029,-0.01,-0.014,-0.006,99.0,101.0,100.0,13.4,1505.2,332.5,-0.8,1.8,2470.984,13.29,0.017,215.5
2022-09-30T00:52:03,42.805,6.029,-0.012,-0.001,-0.006,101.0,101.0,99.0,13.4,1505.2,321.0,-0.8,1.8,2470.985,13.29,0.012,265.2
2022-09-30T00:55:03,42.805,6.029,0.0,-0.023,-0.026,99.0,100.0,100.0,13.3,1505.2,318.5,-0.8,1.8,2471.038,13.29,0.023,180.0
2022-09-30T00:58:03,42.805,6.029,-0.024,0.012,0.013,99.0,100.0,101.0,13.4,1505.2,327.1,-0.7,1.8,2470.983,13.29,0.026,296.6
2022-09-30T01:04:03,42.805,6.029,0.012,-0.027,-0.042,102.0,103.0,101.0,13.3,1505.2,327.3,-0.7,1.9,2471.037,13.29,0.029,156.0
2022-09-30T01:07:03,42.805,6.029,-0.026,-0.039,-0.066,101.0,102.0,100.0,13.4,1505.2,334.6,-0.8,1.8,2471.033,13.29,0.046,213.7
2022-09-30T01:10:02,42.805,6.029,-0.025,-0.009,-0.009,101.0,99.0,100.0,13.3,1505.2,327.9,-0.8,1.8,2471.026,13.29,0.026,250.2
2022-09-30T01:13:03,42.805,6.029,-0.002,0.005,0.005,101.0,101.0,100.0,13.4,1505.2,322.9,-0.8,1.8,2470.973,13.29,0.005,338.2
2022-09-30T01:16:03,42.805,6.029,-0.01,-0.026,-0.024,100.0,100.0,100.0,13.3,1505.2,326.1,-0.8,1.8,2470.981,13.29,0.027,201.0
2022-09-30T01:19:03,42.805,6.029,-0.012,0.002,0.003,101.0,99.0,100.0,13.3,1505.2,326.3,-0.7,1.8,2470.953,13.29,0.012,279.5
2022-09-30T01:22:03,42.805,6.029,-0.04,-0.01,-0.031,100.0,101.0,100.0,13.4,1505.2,317.0,-0.8,1.8,2471.001,13.29,0.041,256.0
2022-09-30T01:25:03,42.805,6.029,-0.043,-0.003,-0.028,100.0,100.0,101.0,13.4,1505.2,334.0,-0.7,1.8,2470.923,13.29,0.043,266.0
2022-09-30T01:28:03,42.805,6.029,-0.019,-0.021,-0.027,99.0,101.0,99.0,13.4,1505.2,330.9,-0.8,1.8,2470.965,13.29,0.028,222.1
2022-09-30T01:31:03,42.805,6.029,-0.033,-0.002,0.012,98.0,101.0,101.0,13.4,1505.2,326.4,-0.8,1.8,2470.988,13.29,0.033,266.5
2022-09-30T01:34:03,42.805,6.029,-0.031,-0.011,-0.02,101.0,101.0,98.0,13.4,1505.2,323.9,-0.7,1.8,2470.993,13.29,0.032,250.5
2022-09-30T01:37:03,42.805,6.029,-0.037,-0.002,-0.04,103.0,100.0,100.0,13.4,1505.2,322.5,-0.8,1.8,2470.995,13.29,0.037,266.9
2022-09-30T01:40:03,42.805,6.029,-0.01,0.0,0.016,100.0,102.0,99.0,13.4,1505.2,323.2,-0.7,1.8,2470.923,13.29,0.01,270.0
2022-09-30T01:43:03,42.805,6.029,-0.009,0.01,0.031,102.0,101.0,100.0,13.3,1505.2,328.2,-0.7,1.8,2470.948,13.29,0.013,318.0
2022-09-30T01:46:03,42.805,6.029,-0.009,-0.009,0.002,100.0,101.0,99.0,13.4,1505.2,321.4,-0.8,1.8,2470.966,13.29,0.012,225.0
2022-09-30T01:49:03,42.805,6.029,-0.025,-0.009,-0.041,102.0,101.0,99.0,13.4,1505.2,330.2,-0.7,1.8,2470.938,13.29,0.026,250.2
2022-09-30T01:52:03,42.805,6.029,-0.007,-0.009,0.008,101.0,102.0,99.0,13.4,1505.2,320.2,-0.8,1.8,2470.997,13.29,0.011,217.9
2022-09-30T01:55:03,42.805,6.029,0.01,-0.007,0.0,101.0,100.0,100.0,13.3,1505.2,327.0,-0.8,1.8,2470.957,13.29,0.012,125.0
2022-09-30T01:58:03,42.805,6.029,0.005,-0.017,-0.026,101.0,102.0,99.0,13.4,1505.2,321.5,-0.8,1.8,2470.962,13.29,0.017,163.6
2022-09-30T02:04:03,42.805,6.029,-0.017,-0.009,-0.036,102.0,101.0,100.0,13.4,1505.2,324.6,-0.7,1.8,2470.968,13.29,0.019,242.1
2022-09-30T02:07:03,42.805,6.029,-0.003,-0.004,-0.012,101.0,101.0,100.0,13.3,1505.2,328.5,-0.8,1.8,2470.972,13.29,0.005,216.9
2022-09-30T02:10:03,42.805,6.029,-0.006,-0.001,-0.017,101.0,102.0,100.0,13.3,1505.2,316.6,-0.8,1.8,2470.983,13.29,0.006,260.5
2022-09-30T02:13:03,42.805,6.029,-0.027,0.008,0.011,100.0,101.0,99.0,13.4,1505.2,324.7,-0.8,1.8,2470.991,13.29,0.028,286.5
2022-09-30T02:16:03,42.805,6.029,-0.002,-0.006,-0.021,103.0,102.0,99.0,13.4,1505.2,321.4,-0.8,1.8,2470.979,13.29,0.006,198.4
2022-09-30T02:19:03,42.805,6.029,-0.035,0.014,0.004,102.0,100.0,99.0,13.3,1505.2,329.7,-0.8,1.8,2470.969,13.29,0.037,291.8
2022-09-30T02:22:03,42.805,6.029,-0.023,0.013,0.009,101.0,101.0,101.0,13.4,1505.2,328.5,-0.7,1.8,2470.974,13.29,0.026,299.5
2022-09-30T02:25:03,42.805,6.029,-0.02,-0.003,0.0,100.0,101.0,100.0,13.3,1505.2,322.2,-0.7,1.8,2470.975,13.29,0.02,261.5
2022-09-30T02:28:03,42.805,6.029,-0.025,0.009,0.014,101.0,101.0,100.0,13.4,1505.2,328.5,-0.8,1.8,2470.976,13.29,0.026,289.8
2022-09-30T02:31:03,42.805,6.029,-0.014,0.0,0.007,101.0,101.0,99.0,13.3,1505.2,320.5,-0.8,1.8,2470.956,13.29,0.014,270.0
2022-09-30T02:34:03,42.805,6.029,0.004,-0.008,0.008,102.0,102.0,98.0,13.4,1505.2,318.0,-0.7,1.8,2470.952,13.29,0.008,153.4
2022-09-30T02:37:03,42.805,6.029,0.003,-0.016,-0.018,102.0,101.0,99.0,13.4,1505.2,330.6,-0.7,1.8,2470.937,13.29,0.016,169.4
2022-09-30T02:40:03,42.805,6.029,-0.016,0.001,0.008,99.0,101.0,100.0,13.4,1505.2,332.2,-0.8,1.8,2470.952,13.29,0.016,273.6
2022-09-30T02:43:03,42.805,6.029,-0.023,-0.007,-0.027,101.0,101.0,100.0,13.3,1505.2,330.5,-0.7,1.8,2470.965,13.29,0.024,253.1
2022-09-30T02:46:03,42.805,6.029,-0.026,0.002,0.002,101.0,101.0,100.0,13.4,1505.2,332.2,-0.8,1.9,2470.971,13.29,0.026,274.4
2022-09-30T02:49:03,42.805,6.029,-0.016,-0.007,0.003,102.0,101.0,99.0,13.4,1505.2,327.3,-0.8,1.8,2470.94,13.29,0.017,246.4
2022-09-30T02:52:03,42.805,6.029,-0.01,-0.003,0.011,101.0,102.0,99.0,13.3,1505.2,329.7,-0.8,1.8,2470.955,13.29,0.01,253.3
2022-09-30T02:55:03,42.805,6.029,-0.03,0.001,0.025,101.0,103.0,99.0,13.4,1505.2,324.4,-0.8,1.8,2470.978,13.29,0.03,271.9
2022-09-30T02:58:03,42.805,6.029,-0.015,-0.005,-0.014,100.0,102.0,100.0,13.3,1505.2,326.3,-0.8,1.8,2470.944,13.29,0.015,251.6
2022-09-30T03:04:03,42.805,6.029,-0.024,-0.006,-0.034,100.0,101.0,100.0,13.4,1505.2,328.7,-0.8,1.8,2470.998,13.29,0.024,256.0
2022-09-30T03:07:03,42.805,6.029,-0.024,-0.004,-0.03,101.0,101.0,100.0,13.4,1505.2,319.0,-0.8,1.8,2470.956,13.29,0.024,260.5
2022-09-30T03:10:03,42.805,6.029,-0.022,-0.005,-0.003,102.0,102.0,100.0,13.4,1505.2,329.2,-0.7,1.8,2470.959,13.29,0.022,257.2
2022-09-30T03:13:03,42.805,6.029,-0.048,-0.01,-0.011,103.0,101.0,100.0,13.4,1505.2,325.7,-0.8,1.8,2470.988,13.29,0.049,258.2
2022-09-30T03:16:03,42.805,6.029,-0.02,-0.006,-0.006,102.0,102.0,99.0,13.3,1505.2,330.7,-0.7,1.8,2470.959,13.29,0.02,253.3
2022-09-30T03:19:03,42.805,6.029,-0.034,-0.01,-0.01,101.0,101.0,100.0,13.4,1505.2,329.3,-0.8,1.8,2470.962,13.29,0.035,253.6
2022-09-30T03:22:03,42.805,6.029,0.002,0.005,0.029,100.0,102.0,99.0,13.4,1505.2,329.0,-0.7,1.9,2470.947,13.29,0.005,21.8
2022-09-30T03:25:03,42.805,6.029,-0.043,0.011,0.007,100.0,101.0,99.0,13.3,1505.2,320.9,-0.8,1.8,2470.945,13.29,0.044,284.3
2022-09-30T03:28:03,42.805,6.029,-0.023,0.003,0.003,101.0,100.0,101.0,13.4,1505.2,330.4,-0.7,1.8,2470.94,13.29,0.023,277.4
2022-09-30T03:31:03,42.805,6.029,-0.025,0.005,-0.001,101.0,102.0,100.0,13.3,1505.2,332.5,-0.7,1.8,2470.909,13.29,0.025,281.3
2022-09-30T03:34:03,42.805,6.029,-0.028,0.001,-0.027,102.0,102.0,99.0,13.4,1505.2,326.3,-0.8,1.8,2470.956,13.29,0.028,272.0
2022-09-30T03:37:03,42.805,6.029,-0.005,0.0,0.005,101.0,101.0,100.0,13.4,1505.2,326.8,-0.8,1.8,2470.931,13.29,0.005,270.0
2022-09-30T03:40:03,42.805,6.029,0.0,-0.02,-0.006,101.0,101.0,100.0,13.4,1505.2,328.2,-0.7,1.8,2470.926,13.29,0.02,180.0
2022-09-30T03:43:03,42.805,6.029,-0.017,0.001,-0.009,101.0,101.0,100.0,13.3,1505.2,321.8,-0.8,1.8,2470.974,13.29,0.017,273.4
2022-09-30T03:46:03,42.805,6.029,-0.021,0.004,-0.023,101.0,100.0,100.0,13.3,1505.2,328.9,-0.7,1.8,2470.901,13.29,0.021,280.8
2022-09-30T03:49:03,42.805,6.029,-0.033,-0.011,-0.047,102.0,101.0,99.0,13.3,1505.2,326.6,-0.8,1.8,2470.915,13.29,0.034,251.6
2022-09-30T03:52:03,42.805,6.029,-0.03,0.002,0.001,102.0,101.0,99.0,13.4,1505.2,326.6,-0.8,1.9,2470.938,13.29,0.03,273.8
2022-09-30T03:55:03,42.805,6.029,-0.038,0.003,-0.001,102.0,101.0,100.0,13.4,1505.2,317.8,-0.7,1.8,2470.919,13.29,0.038,274.5
2022-09-30T03:58:03,42.805,6.029,-0.021,-0.013,-0.007,99.0,100.0,100.0,13.3,1505.2,329.1,-0.8,1.8,2470.916,13.29,0.024,238.2
2022-09-30T04:04:03,42.805,6.029,-0.022,-0.007,0.0,100.0,101.0,99.0,13.3,1505.2,322.8,-0.8,1.8,2470.972,13.29,0.023,252.4
2022-09-30T04:07:03,42.805,6.029,-0.018,0.0,0.001,100.0,100.0,99.0,13.3,1505.2,330.0,-0.8,1.8,2470.988,13.29,0.018,270.0
2022-09-30T04:10:03,42.805,6.029,-0.045,-0.009,-0.016,101.0,102.0,100.0,13.4,1505.2,322.5,-0.8,1.8,2470.995,13.29,0.045,258.7
2022-09-30T04:13:03,42.805,6.029,-0.032,0.013,0.008,102.0,102.0,99.0,13.4,1505.2,319.4,-0.8,1.8,2470.979,13.29,0.034,292.1
2022-09-30T04:16:03,42.805,6.029,-0.025,-0.009,0.005,100.0,101.0,100.0,13.4,1505.2,333.4,-0.7,1.8,2470.982,13.29,0.026,250.2
2022-09-30T04:19:03,42.805,6.029,-0.027,-0.013,-0.018,100.0,101.0,100.0,13.4,1505.2,324.4,-0.7,1.8,2470.946,13.29,0.029,244.3
2022-09-30T04:22:03,42.805,6.029,-0.022,0.003,0.015,101.0,101.0,99.0,13.4,1505.2,317.1,-0.7,1.8,2470.95,13.29,0.022,277.8
2022-09-30T04:25:03,42.805,6.029,-0.037,0.032,0.008,101.0,101.0,100.0,13.4,1505.2,334.3,-0.8,1.8,2470.943,13.29,0.048,310.9
2022-09-30T04:28:03,42.805,6.029,-0.045,-0.002,-0.04,102.0,101.0,100.0,13.4,1505.2,330.1,-0.7,1.8,2470.956,13.29,0.045,267.5
2022-09-30T04:31:03,42.805,6.029,-0.009,0.017,0.002,101.0,101.0,100.0,13.4,1505.2,323.6,-0.8,1.8,2470.957,13.29,0.019,332.1
2022-09-30T04:34:03,42.805,6.029,-0.003,-0.024,-0.019,101.0,102.0,99.0,13.4,1505.2,321.0,-0.8,1.8,2470.949,13.29,0.024,187.1
2022-09-30T04:37:03,42.805,6.029,-0.022,0.018,0.005,101.0,100.0,100.0,13.4,1505.2,320.1,-0.8,1.8,2470.996,13.29,0.028,309.3
2022-09-30T04:40:03,42.805,6.029,-0.014,0.001,-0.009,101.0,101.0,101.0,13.3,1505.2,322.3,-0.7,1.8,2470.918,13.29,0.014,274.1
2022-09-30T04:43:03,42.805,6.029,-0.032,-0.021,-0.048,102.0,101.0,100.0,13.3,1505.2,327.2,-0.8,1.8,2470.916,13.29,0.038,236.7
2022-09-30T04:46:03,42.805,6.029,-0.025,0.001,0.008,102.0,101.0,100.0,13.3,1505.2,321.6,-0.7,1.8,2470.948,13.29,0.025,272.3
2022-09-30T04:49:02,42.805,6.029,-0.034,0.001,0.016,101.0,101.0,99.0,13.3,1505.2,322.8,-0.8,1.8,2470.933,13.29,0.034,271.7
2022-09-30T04:52:03,42.805,6.029,-0.002,-0.001,0.016,100.0,100.0,99.0,13.3,1505.2,317.5,-0.8,1.8,2470.926,13.29,0.002,243.4
2022-09-30T04:55:03,42.805,6.029,-0.057,-0.013,-0.006,100.0,101.0,100.0,13.3,1505.2,321.5,-0.7,1.9,2470.929,13.29,0.058,257.2
2022-09-30T04:58:03,42.805,6.029,-0.024,0.008,0.01,102.0,102.0,100.0,13.3,1505.2,329.8,-0.7,1.8,2470.944,13.29,0.025,288.4
2022-09-30T05:04:03,42.805,6.029,-0.043,0.009,-0.01,102.0,101.0,100.0,13.3,1505.2,328.9,-0.8,1.8,2470.989,13.28,0.043,281.8
2022-09-30T05:07:03,42.805,6.029,-0.026,0.005,-0.001,101.0,102.0,100.0,13.4,1505.2,318.2,-0.8,1.8,2470.949,13.29,0.026,280.9
2022-09-30T05:10:03,42.805,6.029,-0.014,0.015,0.019,102.0,101.0,99.0,13.4,1505.2,331.2,-0.8,1.8,2470.976,13.29,0.02,317.0
2022-09-30T05:13:03,42.805,6.029,-0.03,0.015,-0.015,101.0,101.0,100.0,13.4,1505.2,320.5,-0.7,1.8,2470.965,13.29,0.033,296.6
2022-09-30T05:16:03,42.805,6.029,0.009,0.011,0.026,101.0,100.0,100.0,13.3,1505.2,319.3,-0.8,1.8,2470.99,13.29,0.014,39.3
2022-09-30T05:19:03,42.805,6.029,-0.02,0.003,-0.007,100.0,101.0,101.0,13.3,1505.2,323.6,-0.8,1.8,2470.976,13.29,0.02,278.5
2022-09-30T05:22:03,42.805,6.029,-0.037,0.005,-0.007,99.0,102.0,99.0,13.4,1505.2,331.5,-0.8,1.8,2470.931,13.29,0.037,277.7
2022-09-30T05:25:03,42.805,6.029,-0.02,0.008,-0.011,101.0,102.0,100.0,13.4,1505.2,332.5,-0.8,1.8,2470.944,13.29,0.021,291.8
2022-09-30T05:28:03,42.805,6.029,-0.009,-0.001,0.003,101.0,103.0,99.0,13.3,1505.2,327.8,-0.8,1.8,2470.98,13.29,0.009,263.7
2022-09-30T05:31:03,42.805,6.029,-0.017,0.001,0.017,101.0,101.0,100.0,13.4,1505.2,333.4,-0.8,1.8,2470.964,13.29,0.017,273.4
2022-09-30T05:34:03,42.805,6.029,-0.022,0.004,0.009,101.0,102.0,100.0,13.4,1505.2,320.6,-0.8,1.8,2470.982,13.29,0.022,280.3
2022-09-30T05:37:03,42.805,6.029,-0.017,0.003,0.009,101.0,103.0,100.0,13.4,1505.2,329.6,-0.8,1.8,2470.988,13.29,0.017,280.0
2022-09-30T05:40:03,42.805,6.029,-0.014,0.021,0.012,102.0,101.0,100.0,13.3,1505.2,334.5,-0.8,1.8,2470.927,13.29,0.025,326.3
2022-09-30T05:43:03,42.805,6.029,-0.038,0.002,0.001,102.0,101.0,99.0,13.4,1505.2,327.1,-0.8,1.9,2470.967,13.29,0.038,273.0
2022-09-30T05:46:03,42.805,6.029,-0.03,0.0,-0.048,102.0,102.0,99.0,13.4,1505.2,333.1,-0.8,1.8,2470.982,13.29,0.03,270.0
2022-09-30T05:49:02,42.805,6.029,-0.032,0.022,0.046,102.0,101.0,100.0,13.4,1505.2,325.9,-0.8,1.8,2470.983,13.29,0.038,304.5
2022-09-30T05:52:03,42.805,6.029,0.0,-0.005,0.013,101.0,102.0,100.0,13.4,1505.2,317.1,-0.8,1.8,2470.994,13.29,0.005,180.0
2022-09-30T05:55:03,42.805,6.029,-0.028,0.002,0.014,101.0,102.0,100.0,13.4,1505.2,317.0,-0.7,1.8,2470.979,13.29,0.028,274.1
2022-09-30T05:58:03,42.805,6.029,-0.027,0.009,-0.022,100.0,101.0,100.0,13.4,1505.2,334.5,-0.8,1.8,2470.987,13.29,0.028,288.4
2022-09-30T06:04:03,42.805,6.029,-0.016,0.007,-0.008,101.0,102.0,100.0,13.4,1505.2,330.4,-0.8,1.8,2470.996,13.28,0.017,293.6
2022-09-30T06:07:03,42.805,6.029,-0.043,-0.005,0.005,102.0,102.0,99.0,13.3,1505.2,327.0,-0.7,1.8,2471.016,13.29,0.043,263.4
2022-09-30T06:10:03,42.805,6.029,-0.05,-0.011,-0.032,101.0,101.0,100.0,13.4,1505.2,332.5,-0.8,1.8,2470.981,13.29,0.051,257.6
2022-09-30T06:13:03,42.805,6.029,-0.037,-0.005,-0.016,101.0,102.0,101.0,13.4,1505.2,328.1,-0.8,1.9,2471.016,13.29,0.037,262.3
2022-09-30T06:16:03,42.805,6.029,-0.032,0.041,0.021,101.0,102.0,100.0,13.4,1505.2,331.2,-0.8,1.8,2470.985,13.29,0.052,322.0
2022-09-30T06:19:03,42.805,6.029,-0.013,0.008,0.001,101.0,101.0,100.0,13.4,1505.2,331.4,-0.7,1.8,2471.021,13.29,0.015,301.6
2022-09-30T06:22:03,42.805,6.029,-0.032,0.011,-0.007,101.0,102.0,101.0,13.4,1505.2,331.5,-0.8,1.8,2471.018,13.29,0.033,289.0
2022-09-30T06:25:03,42.805,6.029,-0.024,-0.011,-0.015,100.0,101.0,102.0,13.3,1505.2,320.7,-0.7,1.8,2471.003,13.29,0.026,245.4
2022-09-30T06:28:03,42.805,6.029,-0.055,0.005,0.0,101.0,102.0,100.0,13.3,1505.2,329.6,-0.8,1.8,2471.001,13.29,0.055,275.2
2022-09-30T06:31:03,42.805,6.029,-0.032,-0.003,-0.016,101.0,101.0,100.0,13.3,1505.2,321.2,-0.8,1.8,2471.013,13.29,0.032,264.6
2022-09-30T06:34:03,42.805,6.029,-0.052,0.016,0.007,101.0,100.0,101.0,13.4,1505.2,325.2,-0.7,1.9,2470.993,13.29,0.054,287.1
2022-09-30T06:37:03,42.805,6.029,-0.046,0.013,-0.003,103.0,101.0,100.0,13.3,1505.2,329.9,-0.8,1.8,2471.032,13.29,0.047,285.8
2022-09-30T06:40:03,42.805,6.029,-0.016,0.0,0.011,101.0,100.0,100.0,13.4,1505.2,333.1,-0.8,1.8,2471.002,13.29,0.016,270.0
2022-09-30T06:43:03,42.805,6.029,-0.057,0.007,-0.019,101.0,101.0,100.0,13.4,1505.2,320.5,-0.8,1.8,2470.987,13.29,0.057,277.0
2022-09-30T06:46:03,42.805,6.029,-0.045,0.006,0.009,102.0,101.0,100.0,13.4,1505.2,330.9,-0.8,1.8,2471.017,13.29,0.045,277.6
2022-09-30T06:49:03,42.805,6.029,0.0,-0.006,-0.003,100.0,101.0,101.0,13.4,1505.2,323.1,-0.8,1.8,2471.037,13.29,0.006,180.0
2022-09-30T06:52:03,42.805,6.029,-0.025,0.004,-0.01,101.0,101.0,100.0,13.3,1505.2,327.6,-0.8,1.8,2471.028,13.29,0.025,279.1
2022-09-30T06:55:03,42.805,6.029,-0.043,0.041,0.021,101.0,101.0,102.0,13.4,1505.2,327.7,-0.8,1.8,2470.996,13.29,0.059,313.6
2022-09-30T06:58:03,42.805,6.029,-0.019,-0.007,-0.005,100.0,102.0,100.0,13.4,1505.2,331.9,-0.8,1.8,2471.035,13.29,0.02,249.8
2022-09-30T07:04:03,42.805,6.029,-0.017,-0.041,-0.004,100.0,101.0,100.0,13.3,1505.2,327.8,-0.8,1.8,2471.089,13.28,0.044,202.5
2022-09-30T07:07:03,42.805,6.029,-0.033,0.013,-0.008,101.0,100.0,100.0,13.4,1505.2,329.1,-0.7,1.8,2471.091,13.28,0.035,291.5
2022-09-30T07:10:03,42.805,6.029,-0.017,0.02,0.019,102.0,102.0,99.0,13.4,1505.2,331.5,-0.7,1.8,2471.088,13.29,0.026,319.6
2022-09-30T07:13:03,42.805,6.029,-0.024,0.008,0.014,103.0,102.0,99.0,13.4,1505.2,326.3,-0.8,1.8,2471.067,13.29,0.025,288.4
2022-09-30T07:16:03,42.805,6.029,-0.023,-0.031,-0.037,101.0,102.0,100.0,13.4,1505.2,325.7,-0.8,1.8,2471.064,13.29,0.038,216.6
2022-09-30T07:19:03,42.805,6.029,-0.016,-0.02,-0.026,101.0,102.0,99.0,13.4,1505.2,323.5,-0.7,1.8,2471.1,13.29,0.025,218.7
2022-09-30T07:22:03,42.805,6.029,-0.037,0.015,-0.001,101.0,103.0,99.0,13.3,1505.2,323.0,-0.8,1.8,2471.07,13.29,0.039,292.1
2022-09-30T07:25:03,42.805,6.029,-0.019,0.001,0.004,100.0,101.0,100.0,13.3,1505.2,322.7,-0.7,1.8,2471.047,13.29,0.019,273.0
2022-09-30T07:28:03,42.805,6.029,-0.029,-0.004,-0.009,102.0,101.0,100.0,13.4,1505.2,317.4,-0.7,1.8,2471.081,13.29,0.029,262.2
2022-09-30T07:31:03,42.805,6.029,-0.043,0.005,0.012,101.0,102.0,101.0,13.4,1505.2,327.3,-0.8,1.8,2471.054,13.29,0.043,276.6
2022-09-30T07:34:03,42.805,6.029,-0.016,0.017,0.032,102.0,102.0,99.0,13.4,1505.2,330.8,-0.8,1.9,2471.082,13.29,0.023,316.7
2022-09-30T07:37:03,42.805,6.029,-0.044,-0.005,-0.044,101.0,102.0,100.0,13.3,1505.2,324.3,-0.7,1.8,2471.075,13.29,0.044,263.5
2022-09-30T07:40:03,42.805,6.029,-0.023,0.031,0.025,101.0,101.0,100.0,13.4,1505.2,334.0,-0.8,1.8,2471.08,13.29,0.038,323.4
2022-09-30T07:43:03,42.805,6.029,-0.044,0.01,0.025,101.0,102.0,100.0,13.4,1505.2,329.3,-0.8,1.8,2471.049,13.29,0.045,282.8
2022-09-30T07:46:03,42.805,6.029,-0.015,-0.008,-0.03,102.0,101.0,99.0,13.4,1505.2,320.3,-0.7,1.8,2471.108,13.29,0.017,241.9
2022-09-30T07:49:03,42.805,6.029,-0.003,-0.016,-0.005,102.0,101.0,99.0,13.4,1505.2,322.7,-0.7,1.8,2471.101,13.29,0.016,190.6
2022-09-30T07:52:03,42.805,6.029,-0.026,-0.003,-0.021,102.0,102.0,100.0,13.4,1505.2,319.4,-0.7,1.8,2471.078,13.29,0.026,263.4
2022-09-30T07:55:03,42.805,6.029,-0.058,0.016,-0.018,101.0,101.0,100.0,13.4,1505.2,327.9,-0.8,1.8,2471.098,13.29,0.06,285.4
2022-09-30T07:58:03,42.805,6.029,-0.081,0.005,-0.029,101.0,101.0,100.0,13.4,1505.2,328.5,-0.7,1.8,2471.105,13.29,0.081,273.5
2022-09-30T08:04:03,42.805,6.029,-0.042,0.03,0.009,101.0,102.0,100.0,13.4,1505.2,330.9,-0.8,1.8,2471.137,13.28,0.051,305.5
2022-09-30T08:07:03,42.805,6.029,-0.027,0.014,0.0,102.0,101.0,100.0,13.4,1505.2,320.6,-0.8,1.8,2471.13,13.28,0.03,297.4
2022-09-30T08:10:03,42.805,6.029,-0.051,0.027,-0.017,101.0,102.0,99.0,13.4,1505.2,329.2,-0.8,1.8,2471.145,13.29,0.057,297.9
2022-09-30T08:13:03,42.805,6.029,-0.03,0.004,-0.004,101.0,102.0,100.0,13.4,1505.2,328.8,-0.7,1.8,2471.125,13.29,0.03,277.6
2022-09-30T08:16:03,42.805,6.029,-0.044,0.009,-0.008,102.0,101.0,100.0,13.4,1505.2,328.8,-0.8,1.8,2471.133,13.29,0.044,281.6
2022-09-30T08:19:03,42.805,6.029,-0.057,0.0,-0.014,102.0,101.0,100.0,13.4,1505.2,329.2,-0.7,1.9,2471.162,13.29,0.057,270.0
2022-09-30T08:22:03,42.805,6.029,-0.04,0.017,0.014,102.0,102.0,99.0,13.4,1505.2,322.5,-0.8,1.8,2471.132,13.29,0.043,293.0
2022-09-30T08:25:03,42.805,6.029,-0.057,0.004,-0.024,101.0,101.0,100.0,13.4,1505.2,323.8,-0.8,1.8,2471.134,13.29,0.057,274.0
2022-09-30T08:28:03,42.805,6.029,-0.043,0.017,0.019,101.0,102.0,99.0,13.4,1505.2,328.5,-0.8,1.8,2471.122,13.29,0.046,291.6
2022-09-30T08:31:03,42.805,6.029,-0.026,0.0,0.009,99.0,102.0,100.0,13.4,1505.2,320.5,-0.8,1.8,2471.129,13.29,0.026,270.0
2022-09-30T08:34:03,42.805,6.029,-0.039,0.016,0.001,101.0,102.0,100.0,13.3,1505.2,330.4,-0.8,1.8,2471.113,13.29,0.042,292.3
2022-09-30T08:37:03,42.805,6.029,-0.035,0.008,0.013,101.0,102.0,100.0,13.4,1505.2,317.1,-0.8,1.8,2471.127,13.29,0.035,282.9
2022-09-30T08:40:03,42.805,6.029,-0.035,0.019,0.008,101.0,101.0,101.0,13.4,1505.2,320.2,-0.8,1.8,2471.127,13.29,0.039,298.5
2022-09-30T08:43:03,42.805,6.029,-0.062,0.016,-0.01,101.0,102.0,99.0,13.4,1505.2,324.6,-0.8,1.8,2471.136,13.29,0.064,284.5
2022-09-30T08:46:03,42.805,6.029,-0.05,0.009,0.029,102.0,102.0,99.0,13.4,1505.2,330.6,-0.8,1.8,2471.17,13.29,0.05,280.2
2022-09-30T08:49:03,42.805,6.029,-0.051,0.018,-0.001,102.0,101.0,100.0,13.4,1505.2,330.8,-0.7,1.8,2471.11,13.29,0.054,289.4
2022-09-30T08:52:03,42.805,6.029,-0.027,0.0,-0.007,101.0,102.0,100.0,13.3,1505.2,333.4,-0.8,1.8,2471.142,13.29,0.026,270.0
2022-09-30T08:55:03,42.805,6.029,-0.018,0.006,-0.018,102.0,101.0,101.0,13.4,1505.2,332.5,-0.8,1.8,2471.127,13.29,0.018,288.4
2022-09-30T08:58:03,42.805,6.029,-0.047,-0.001,-0.001,102.0,102.0,100.0,13.4,1505.2,322.2,-0.8,1.8,2471.163,13.29,0.047,268.8
2022-09-30T09:04:03,42.805,6.029,-0.033,0.024,0.034,101.0,102.0,100.0,13.3,1505.2,316.6,-0.7,1.8,2471.193,13.28,0.04,306.0
2022-09-30T09:07:03,42.805,6.029,-0.038,0.0,-0.013,102.0,101.0,100.0,13.4,1505.2,317.8,-0.8,1.8,2471.177,13.29,0.038,270.0
2022-09-30T09:10:03,42.805,6.029,-0.06,0.013,0.005,102.0,102.0,100.0,13.4,1505.2,317.0,-0.8,1.8,2471.162,13.29,0.061,282.2
2022-09-30T09:13:03,42.805,6.029,-0.043,0.013,0.034,102.0,102.0,100.0,13.3,1505.2,328.0,-0.7,1.8,2471.196,13.29,0.044,286.8
2022-09-30T09:16:03,42.805,6.029,-0.064,0.013,-0.016,102.0,101.0,100.0,13.4,1505.2,322.7,-0.8,1.8,2471.175,13.29,0.065,281.5
2022-09-30T09:19:03,42.805,6.029,0.001,0.018,0.018,101.0,103.0,100.0,13.4,1505.2,323.1,-0.8,1.8,2471.151,13.29,0.018,3.2
2022-09-30T09:22:03,42.805,6.029,-0.019,0.008,0.0,101.0,102.0,100.0,13.4,1505.2,320.1,-0.7,1.8,2471.206,13.29,0.02,292.8
2022-09-30T09:25:03,42.805,6.029,-0.052,0.019,0.007,102.0,101.0,101.0,13.4,1505.2,320.6,-0.7,1.8,2471.129,13.29,0.055,290.1
2022-09-30T09:28:03,42.805,6.029,-0.039,0.006,-0.006,102.0,101.0,100.0,13.3,1505.2,325.3,-0.7,1.8,2471.175,13.29,0.039,278.7
2022-09-30T09:31:03,42.805,6.029,-0.026,0.009,-0.019,103.0,101.0,100.0,13.4,1505.2,323.0,-0.7,1.8,2471.142,13.29,0.027,289.1
2022-09-30T09:34:03,42.805,6.029,-0.024,-0.006,0.004,102.0,101.0,101.0,13.3,1505.2,320.6,-0.8,1.8,2471.149,13.29,0.024,256.0
2022-09-30T09:37:03,42.805,6.029,-0.04,0.014,-0.028,102.0,101.0,100.0,13.4,1505.2,327.5,-0.7,1.8,2471.168,13.29,0.042,289.3
2022-09-30T09:40:03,42.805,6.029,-0.042,0.03,-0.016,99.0,102.0,101.0,13.4,1505.2,332.1,-0.8,1.8,2471.174,13.29,0.051,305.5
2022-09-30T09:43:03,42.805,6.029,-0.005,0.009,0.012,101.0,102.0,100.0,13.3,1505.2,325.3,-0.7,1.8,2471.142,13.29,0.01,330.9
2022-09-30T09:46:03,42.805,6.029,-0.026,-0.016,-0.024,102.0,102.0,100.0,13.4,1505.2,328.6,-0.7,1.8,2471.175,13.29,0.03,238.4
2022-09-30T09:49:03,42.805,6.029,-0.021,0.001,0.011,102.0,102.0,100.0,13.4,1505.2,332.5,-0.8,1.8,2471.19,13.29,0.021,272.7
2022-09-30T09:52:03,42.805,6.029,-0.042,0.019,-0.009,101.0,101.0,100.0,13.4,1505.2,329.9,-0.8,1.8,2471.124,13.29,0.046,294.3
2022-09-30T09:55:03,42.805,6.029,-0.033,0.014,0.009,103.0,101.0,101.0,13.4,1505.2,327.9,-0.8,1.8,2471.159,13.29,0.035,293.0